Voltar ao catálogo

STARLINK-6379

AtivoComunicaçõesVLEO
NORAD 57343·PAYLOAD·🇺🇸 United States

Lançado Jul 16, 2023 de Cape Canaveral Space Force Station

Loading…

Próximas Passagens (próximas 24 horas)

TLE

AtualizadoSource: CelesTrak SupGP

Época: Sep 15, 2026, 02:09 UTC

1 57343C 23099R   26258.09006944 -.00011347  00000+0 -41101-3 0  2585
2 57343  43.0001 263.0727 0001117 259.5904 299.3621 15.27583511    14

Acompanhe STARLINK-6379 em tempo real com AllMySat

Download on the App Store